Voltar ao catálogo

FENGYUN 1C DEB

LostPO
NORAD 39112·DEBRIS·🇨🇳 China

Lançado May 10, 1999 de Taiyuan Satellite Launch Center

Loading…

Próximas Passagens (próximas 24 horas)

TLE

ObsoletoSource: Space-Track

Época: Oct 29, 2022, 03:51 UTC

1 39112U 99025EVZ 22302.16087310  .00005628  00000-0  18964-2 0  9997
2 39112  99.1815 282.2880 0042349 260.8258  98.8134 14.36943104508937

Acompanhe FENGYUN 1C DEB em tempo real com AllMySat

Download on the App Store